Location: Br�znic
(45.9167°N, 22.6500°E)
Time: 14:47:29
(UTC+00:00)

H-2A R/B - Pass Details

Date: 03 March 2021
Orbit: 732 x 837 km, 98.2° (Epoch: 15 April)

Event Time Altitude Azimuth Distance (km) Brightness Sun altitude
Rises 18:00:07 0° 193° (SSW) 3,363 5.4 -18.4°
Reaches altitude 10° 18:02:43 10° 203° (SSW) 2,441 4.7 -18.8°
Maximum altitude 18:07:31 32° 265° (W) 1,420 4.0 -19.6°
Drops below altitude 10° 18:12:21 10° 328° (NNW) 2,457 5.2 -20.4°
Sets 18:14:59 0° 338° (NNW) 3,389 5.8 -20.9°
